Weather History for KAFJ - June, 2013

Change the Weather History Date:

Thursday, June 13, 2013

  Actual Average Record
Temperature  
Mean Temperature 66 °F -  
Max Temperature 73 °F 74 °F 87 °F (2001)
Min Temperature 59 °F 55 °F 44 °F (2006)
Cooling Degree Days 2    
Growing Degree Days 16 (Base 50)    
Moisture  
Dew Point 62 °F    
Average Humidity 88    
Maximum Humidity 100    
Minimum Humidity 73    
Precipitation  
Precipitation 0.00 in - - ()
Sea Level Pressure  
Sea Level Pressure 29.72 in    
Wind  
Wind Speed 7 mph (SSW)    
Max Wind Speed 24 mph    
Max Gust Speed 37 mph    
Visibility 9 miles    
Events Thunderstorm    
Averages and records for this station are not official NWS values.
T = Trace of Precipitation, MM = Missing Value Source: NWS Daily Summary

Daily Weather History Graph

Daily Weather History Graph

Search for Another Location

Airport or City:

Trip Planner

Search our weather history database for the weather conditions in past years. The results will help you decide how hot, cold, wet, or windy it might be!

Date:

Astronomy

Jun. 13, 2013 Rise Set
Actual Time 5:51 AM EDT 8:51 PM EDT
Civil Twilight 5:18 AM EDT 9:24 PM EDT
Nautical Twilight 4:36 AM EDT 10:06 PM EDT
Astronomical Twilight 3:48 AM EDT 10:54 PM EDT
Moon 10:26 AM EDT (6/13) 11:57 PM EDT (6/13)
Length of Visible Light 16h 05m
Length of Day
15h 00m
Waxing Crescent, 21% of the Moon is Illuminated
Jun 13
Waxing Crescent
Jun 16
First Quarter
Jun 23
Full
Jun 30
Last Quarter
Jul 8
New

Hourly Weather History & Observations

Time (EDT) Temp. Dew Point Humidity Pressure Visibility Wind Dir Wind Speed Gust Speed Precip Events Conditions
12:15 AM 71.6 °F 71.6 °F 100% 29.78 in 3.0 mi South 3.5 mph - N/A   Scattered Clouds
12:35 AM 73.4 °F 71.6 °F 94% 29.77 in 5.0 mi SSE 4.6 mph - N/A   Partly Cloudy
12:55 AM 73.4 °F 71.6 °F 94% 29.78 in 10.0 mi SSE 5.8 mph - N/A   Clear
1:15 AM 73.4 °F 66.2 °F 78% 29.77 in 7.0 mi SE 8.1 mph 17.3 mph N/A Thunderstorm Partly Cloudy
1:35 AM 71.6 °F 64.4 °F 78% 29.77 in 5.0 mi ESE 9.2 mph - N/A Thunderstorm Mostly Cloudy
1:55 AM 69.8 °F 64.4 °F 83% 29.79 in 10.0 mi SW 10.4 mph - N/A Thunderstorm Thunderstorm
2:15 AM 69.8 °F 66.2 °F 88% 29.76 in 2.5 mi East 3.5 mph - N/A Thunderstorm Thunderstorm
2:35 AM 66.2 °F 66.2 °F 100% 29.73 in 10.0 mi Calm Calm - N/A Thunderstorm Thunderstorm
2:55 AM 68.0 °F 66.2 °F 94% 29.70 in 10.0 mi SSE 3.5 mph - N/A Thunderstorm Overcast
3:15 AM 66.2 °F 66.2 °F 100% 29.70 in 10.0 mi East 4.6 mph - N/A Thunderstorm Mostly Cloudy
3:35 AM 68.0 °F 66.2 °F 94% 29.68 in 10.0 mi East 10.4 mph - N/A   Mostly Cloudy
3:55 AM 68.0 °F 64.4 °F 88% 29.66 in 10.0 mi ESE 6.9 mph - N/A   Partly Cloudy
4:15 AM 68.0 °F 66.2 °F 94% 29.63 in 5.0 mi SE 5.8 mph 29.9 mph N/A Thunderstorm Thunderstorm
4:35 AM 68.0 °F 66.2 °F 94% 29.72 in 2.5 mi WSW 24.2 mph 36.8 mph N/A Thunderstorm Thunderstorm
4:55 AM 66.2 °F 64.4 °F 94% 29.70 in 10.0 mi SW 4.6 mph - N/A Thunderstorm Mostly Cloudy
5:15 AM 66.2 °F 62.6 °F 88% 29.70 in 9.0 mi South 4.6 mph - N/A   Partly Cloudy
5:35 AM 64.4 °F 62.6 °F 94% 29.70 in 10.0 mi SE 6.9 mph - N/A   Scattered Clouds
5:55 AM 64.4 °F 62.6 °F 94% 29.67 in 10.0 mi ESE 10.4 mph - N/A   Mostly Cloudy
6:15 AM 64.4 °F 62.6 °F 94% 29.64 in 10.0 mi ESE 8.1 mph - N/A   Scattered Clouds
6:35 AM 64.4 °F 62.6 °F 94% 29.60 in 10.0 mi SE 6.9 mph - N/A   Mostly Cloudy
6:55 AM 64.4 °F 62.6 °F 94% 29.59 in 10.0 mi ESE 9.2 mph - N/A   Mostly Cloudy
7:15 AM 64.4 °F 62.6 °F 94% 29.58 in 10.0 mi SE 4.6 mph - N/A   Scattered Clouds
7:35 AM 64.4 °F 62.6 °F 94% 29.62 in 10.0 mi South 6.9 mph - N/A   Clear
7:55 AM 64.4 °F 62.6 °F 94% 29.63 in 10.0 mi South 4.6 mph - N/A   Clear
10:15 AM 69.8 °F 64.4 °F 83% 29.64 in 10.0 mi SSE 8.1 mph 19.6 mph N/A   Unknown
10:35 AM 69.8 °F 64.4 °F 83% 29.64 in 10.0 mi South 10.4 mph - N/A   Overcast
10:55 AM 69.8 °F 64.4 °F 83% 29.65 in 10.0 mi South 10.4 mph - N/A   Overcast
11:15 AM 71.6 °F 64.4 °F 78% 29.66 in 10.0 mi South 10.4 mph - N/A   Overcast
11:35 AM 69.8 °F 64.4 °F 83% 29.66 in 10.0 mi SSW 4.6 mph - N/A   Overcast
11:55 AM 69.8 °F 64.4 °F 83% 29.66 in 10.0 mi SW 5.8 mph - N/A   Overcast
12:15 PM 69.8 °F 66.2 °F 88% 29.65 in 10.0 mi South 12.7 mph - N/A   Mostly Cloudy
12:35 PM 69.8 °F 64.4 °F 83% 29.65 in 7.0 mi SW 5.8 mph - N/A   Overcast
12:55 PM 68.0 °F 64.4 °F 88% 29.65 in 10.0 mi SSW 6.9 mph - N/A   Overcast
1:15 PM 68.0 °F 64.4 °F 88% 29.65 in 10.0 mi WSW 12.7 mph 16.1 mph N/A   Overcast
1:35 PM 66.2 °F 62.6 °F 88% 29.65 in 10.0 mi WNW 8.1 mph - N/A   Overcast
1:55 PM 66.2 °F 62.6 °F 88% 29.66 in 10.0 mi West 9.2 mph 16.1 mph N/A   Overcast
2:15 PM 66.2 °F 60.8 °F 83% 29.67 in 10.0 mi WSW 11.5 mph - N/A   Overcast
2:35 PM 66.2 °F 60.8 °F 83% 29.68 in 10.0 mi SW 8.1 mph - N/A   Overcast
2:55 PM 66.2 °F 60.8 °F 83% 29.69 in 10.0 mi West 9.2 mph 17.3 mph N/A   Overcast
3:15 PM 64.4 °F 60.8 °F 88% 29.69 in 10.0 mi SW 9.2 mph 16.1 mph N/A   Overcast
3:35 PM 64.4 °F 60.8 °F 88% 29.70 in 10.0 mi WSW 9.2 mph - N/A   Overcast
3:55 PM 62.6 °F 60.8 °F 94% 29.71 in 9.0 mi WSW 12.7 mph 17.3 mph N/A   Overcast
4:15 PM 62.6 °F 60.8 °F 94% 29.72 in 10.0 mi WSW 9.2 mph 20.7 mph N/A   Overcast
4:35 PM 64.4 °F 60.8 °F 88% 29.72 in 10.0 mi West 8.1 mph 17.3 mph N/A   Overcast
4:55 PM 64.4 °F 60.8 °F 88% 29.73 in 10.0 mi WSW 13.8 mph 24.2 mph N/A   Overcast
5:15 PM 64.4 °F 59.0 °F 83% 29.73 in 10.0 mi WSW 8.1 mph 18.4 mph N/A   Overcast
5:35 PM 64.4 °F 59.0 °F 83% 29.73 in 10.0 mi WSW 11.5 mph 17.3 mph N/A   Mostly Cloudy
5:55 PM 66.2 °F 59.0 °F 78% 29.73 in 10.0 mi WSW 10.4 mph 17.3 mph N/A   Overcast
6:15 PM 66.2 °F 59.0 °F 78% 29.74 in 10.0 mi WSW 9.2 mph - N/A   Overcast
6:35 PM 66.2 °F 59.0 °F 78% 29.75 in 10.0 mi WSW 10.4 mph - N/A   Overcast
6:55 PM 66.2 °F 59.0 °F 78% 29.75 in 10.0 mi WSW 4.6 mph - N/A   Scattered Clouds
7:15 PM 66.2 °F 59.0 °F 78% 29.76 in 10.0 mi SSW 4.6 mph - N/A   Partly Cloudy
7:35 PM 66.2 °F 57.2 °F 73% 29.77 in 10.0 mi SSW 3.5 mph - N/A   Scattered Clouds
7:55 PM 62.6 °F 57.2 °F 82% 29.79 in 3.0 mi WNW 10.4 mph 24.2 mph N/A   Mostly Cloudy
8:15 PM 60.8 °F 57.2 °F 88% 29.80 in 6.0 mi West 10.4 mph - N/A   Mostly Cloudy
8:35 PM 60.8 °F 57.2 °F 88% 29.80 in 10.0 mi West 5.8 mph - N/A   Overcast
8:55 PM 60.8 °F 57.2 °F 88% 29.80 in 10.0 mi WSW 4.6 mph - N/A   Mostly Cloudy
9:15 PM 60.8 °F 57.2 °F 88% 29.81 in 10.0 mi WSW 4.6 mph - N/A   Overcast
9:35 PM 60.8 °F 59.0 °F 94% 29.81 in 10.0 mi West 4.6 mph - N/A   Overcast
9:55 PM 60.8 °F 59.0 °F 94% 29.82 in 10.0 mi WSW 4.6 mph - N/A   Overcast
10:15 PM 60.8 °F 59.0 °F 94% 29.83 in 10.0 mi WNW 4.6 mph - N/A   Overcast
10:35 PM 60.8 °F 59.0 °F 94% 29.83 in 10.0 mi WSW 5.8 mph - N/A   Overcast
10:55 PM 60.8 °F 57.2 °F 88% 29.83 in 10.0 mi WSW 9.2 mph - N/A   Overcast
11:15 PM 60.8 °F 55.4 °F 82% 29.83 in 10.0 mi WSW 9.2 mph - N/A   Mostly Cloudy
11:35 PM 60.8 °F 53.6 °F 77% 29.83 in 10.0 mi WSW 8.1 mph - N/A   Partly Cloudy
11:55 PM 59.0 °F 53.6 °F 82% 29.83 in 10.0 mi SW 5.8 mph - N/A   Clear